Hourly Data Report for June 20, 2018

OTTAWA INTL A
ONTARIO
Current Station Operator: NAVCAN

45°19'00.000" N
75°40'00.000" W
114.90 m
6106001
71628
YOW

Download Data

Hourly Data (June 2018)
Hourly Data Report for June 20, 2018
TIME
LST
Temp Definition
°C
Dew Point Definition
°C
Rel Hum Definition
%
Precip. Amount Definition
mm

Wind Dir Definition
10's deg

Wind Spd Definition
km/h
Visibility Definition
km
Stn Press Definition
kPa
Hmdx Definition


Wind Chill Definition


Weather Definition


00:00 13.8 9.4 75   21 7 24.1 99.95     LegendNANA
01:00 12.7 9.6 81   21 7 24.1 99.91     Clear
02:00 12.1 9.6 84   23 5 24.1 99.85     LegendNANA
03:00 10.9 9.2 90   21 10 24.1 99.85     LegendNANA
04:00 10.6 8.9 89   24 10 24.1 99.86     Mainly Clear
05:00 10.8 8.8 87   24 6 24.1 99.88     LegendNANA
06:00 13.4 10.7 84   23 7 24.1 99.84     LegendNANA
07:00 17.2 11.4 69   24 13 24.1 99.84     Mostly Cloudy
08:00 19.2 11.5 61   26 12 24.1 99.81     LegendNANA
09:00 22.0 11.1 50   24 17 24.1 99.76     LegendNANA
10:00 23.9 10.8 43   28 21 24.1 99.71 26   Mostly Cloudy
11:00 24.9 9.8 38   25 22 24.1 99.65 26   LegendNANA
12:00 26.4 9.6 34   27 21 24.1 99.57 27   LegendNANA
13:00 27.0 10.0 34   24 19 24.1 99.50 28   Mainly Clear
14:00 27.7 9.9 32   26 22 24.1 99.44 29   LegendNANA
15:00 28.3 10.3 32   28 20 24.1 99.44 30   LegendNANA
16:00 25.8 13.9 47   35 29 24.1 99.42 29   Mostly Cloudy
17:00 25.2 14.3 50   36 25 24.1 99.42 29   LegendNANA
18:00 22.9 15.5 63   2 13 24.1 99.43 27   LegendNANA
19:00 22.9 13.7 55   35 26 24.1 99.50 26   Mostly Cloudy
20:00 20.8 14.1 65   33 18 24.1 99.53     LegendNANA
21:00 19.9 13.3 66   34 16 24.1 99.56     LegendNANA
22:00 18.6 13.5 72   33 17 24.1 99.61     Mostly Cloudy
23:00 18.3 12.7 70   31 18 24.1 99.66     LegendNANA

Notes on Data Quality.

Legend

  • E = Estimated
  • M = Missing
  • NA = Not Available*
  • [empty] = Indicates an unobserved value
Date modified: